Other Public Products
Issued by NWS Grand Forks, ND

Home | Current Version | Previous Version | Text Only | Print | Product List | Glossary On
Versions: 1 2 3 4 5 6 7 8 9 10 11 12 13 14 15 16 17 18 19 20 21 22 23 24 25 26 27 28 29 30 31 32 33 34 35 36 37 38 39 40 41 42 43 44 45 46 47 48 49 50
000
FPUS83 KFGF 262231
OPUFGF
PRAIRIE TO PINES WEATHER ROUNDUP
NATIONAL WEATHER SERVICE EASTERN NORTH DAKOTA/GRAND FORKS ND
400 PM CST MON JAN 26 2015

 **SATELLITE DATA USED TO AUGMENT SKY COVER AT AUTOMATED STATIONS**
 *****  WEATHER ACROSS EASTERN NORTH DAKOTA  *****

CITY           SKY/WX    TMP DP  RH WIND       PRES   REMARKS
GRAND FORKS    PTCLDY    30  27  86 N16       29.94R WCI  19
GRAND FORKS AF SUNNY     33  27  76 N13       29.94R WCI  24
GRAND CITY NWS NOT AVBL
BUXTON           N/A     32  29  89 N12         N/A  WCI  23
DEVILS LAKE    SUNNY     37  30  75 NW8       29.93R
FARGO          CLOUDY    36  29  75 N14       29.91R
WAHPETON ARPT  CLOUDY    36  32  87 N12       29.91R
$$

 *****  WEATHER ACROSS CENTRAL AND WESTERN NORTH DAKOTA  *****

CITY           SKY/WX    TMP DP  RH WIND       PRES   REMARKS
JAMESTOWN      SUNNY     39  32  76 NW12      29.91R
BISMARCK       SUNNY     49  32  52 N7        29.97R
MINOT          SUNNY     43  32  65 W5        29.93S
MINOT AFB      MOSUNNY   42  38  88 W5        29.93R
GARRISON         N/A     47  36  65 N3        29.95R
WILLISTON      MOSUNNY   49  32  52 SW6       29.92F
DICKINSON      PTSUNNY   52  29  41 W6        29.94S
HETTINGER      MOSUNNY   53  33  46 W9        29.97S
$$

 *****  OTHER OBSERVATIONS NORTHEAST NORTH DAKOTA  *****

CITY           SKY/WX    TMP DP  RH WIND       PRES   REMARKS
WALHALLA         N/A     32  32 100 N8        29.94R WCI  25
LANGDON        FOG       30  28  93 N8        29.90S VSB 1/4 WCI  23
CAVALIER       FAIR      32  27  80 N8        29.95R WCI  25
GRAFTON        NOT AVBL
CANDO          FAIR      36  30  80 W6        29.93S
FORT TOTTEN      N/A     40  31  70 NW5       29.95S
ROLLA          CLOUDY    37  30  75 NW12      29.92S
RUGBY          FAIR      36  32  87 NW10      29.94R
 ***** THE ABOVE OBSERVATIONS ARE NON NWS ARE NOT QUALITY
        CONTROLLED AND MAY MIS-REPORT RAIN FOR SNOW...
$$

 *****  OTHER OBSERVATIONS SOUTHEAST NORTH DAKOTA *****

CITY           SKY/WX    TMP DP  RH WIND       PRES   REMARKS
COOPERSTOWN    NOT AVBL
VALLEY CITY    FAIR      37  36  93 NW14G21   29.93R
OAKES            N/A     39  36  87 NW10      29.93S
GWINNER        CLEAR     43  36  75 N8        29.93R
SHEYENNE NWR     N/A     42  32  67 N10       29.95S
BUFFALO        NOT AVBL
WYNDMERE         N/A     39  34  81 NW9         N/A
 ***** THE ABOVE OBSERVATIONS ARE NON NWS ARE NOT QUALITY
       CONTROLLED AND MAY MIS-REPORT RAIN FOR SNOW...
$$

  *****  WEATHER ACROSS NORTHERN MINNESOTA  *****

CITY           SKY/WX    TMP DP  RH WIND       PRES   REMARKS
FLAG ISLAND    CLOUDY    27  21  80 NW15      29.86R WCI  15
WARROAD        CLOUDY    28  23  80 NW6       29.88R WCI  22
ROSEAU         CLOUDY    28  25  86 N10       29.88R WCI  19
HALLOCK        CLOUDY    28  25  86 N16       29.93R WCI  17
THF RVR FALLS  CLOUDY    30  25  80 NW14      29.90R WCI  20
HALSTAD          N/A     31  25  78 N20         N/A  WCI  18
FOSSTON        CLOUDY    28  25  86 N15       29.89R WCI  17
BAUDETTE       CLOUDY    28  22  78 NW14      29.84R WCI  17
WASKISH        CLOUDY    30  25  80 N12G17    29.86R WCI  21
CROOKSTON      CLOUDY    28  27  93 N17       29.93R WCI  16
$$
  *****  WEATHER ACROSS CENTRAL AND WEST MINNESOTA  *****

CITY           SKY/WX    TMP DP  RH WIND       PRES   REMARKS
BEMIDJI        CLOUDY    32  27  83 NW13      29.84R WCI  22
PARK RAPIDS    CLOUDY    35  28  75 NW15      29.80R
WADENA         CLOUDY    34  27  75 NW16G23   29.84R WCI  23
DETROIT LAKES  CLOUDY    32  30  93 NW17G24   29.89R WCI  21
MOORHEAD       CLOUDY    34  34 100 N13G18    29.93R WCI  25
FERGUS FALLS   PTSUNNY   34  28  80 N9G22     29.92R
ELBOW LAKE     CLOUDY    36  32  86 NW9       29.87R
MORRIS MN      PTSUNNY   39  34  81 NW17      29.87R
STAPLES        CLOUDY    36  28  75 NW13      29.81R
WHEATON        PTSUNNY   39  32  75 NW13      29.92R
$$
  *****  WEATHER ELSEWHERE ACROSS MINNESOTA  *****

CITY           SKY/WX    TMP DP  RH WIND       PRES   REMARKS
DULUTH         LGT SNOW  31  27  85 N6        29.72R FOG
INTRNTL FALLS  CLOUDY    28  23  81 N12       29.80R WCI  18
ELY            CLOUDY    25  23  93 CALM      29.75R FOG
CLOQUET        MIX PCPN  34  30  86 N9        29.74R
BRAINERD       CLOUDY    37  28  70 N16       29.79R
HIBBING        CLOUDY    32  26  78 N17       29.74R WCI  21
ALEXANDRIA     PTSUNNY   38  29  70 NW18G31   29.83R
SAINT CLOUD    CLOUDY    40  29  64 NW15G26   29.79R
MINNEAPOLIS    CLOUDY    42  32  67 W15G23    29.77R
$$

  *****  WEATHER ACROSS SOUTH DAKOTA  *****

CITY           SKY/WX    TMP DP  RH WIND       PRES   REMARKS
SIOUX FALLS    MOSUNNY   47  36  65 NW16      29.92R
BROOKINGS      NOT AVBL
WATERTOWN      SUNNY     41  34  76 NW15      29.91R
HURON          SUNNY     49  37  63 NW14      29.96R
SISSETON         N/A     43  35  73 N21       29.89R
ABERDEEN       SUNNY     46  35  65 NW14      29.97R
MITCHELL       SUNNY     53  38  56 N12       29.98R
PIERRE         SUNNY     57  28  33 NW10      29.98R
MOBRIDGE       MOSUNNY   51  34  52 NW12      29.95R
RAPID CITY     SUNNY     67  30  25 N13       30.01S
$$

  *****  SOME WEATHER IN NEARBY STATES *****

CITY           SKY/WX    TMP DP  RH WIND       PRES   REMARKS
GLASGOW MT     MOSUNNY   50  35  56 SW9       29.90F
GREAT FALLS MT MOSUNNY   66  29  24 SW22G30   29.94F
CHEYENNE WY    SUNNY     66  19  16 NW16      30.21S
SCOTTSBLUFF NE SUNNY     65  37  35 W9        30.11F
OMAHA NE       MOSUNNY   57  35  43 NW17      29.94R
DES MOINES IA  MOSUNNY   53  36  52 NW18G24   29.85R
DAVENPORT IA   CLOUDY    31  27  85 SW8       29.81S FOG     WCI  23
CHICAGO IL     FLURRIES  26  21  81 S6        29.87R WCI  19
EAU CLAIRE WI  CLOUDY    27  24  89 CALM      29.77R
LA CROSSE WI   CLOUDY    30  26  85 S7        29.78R WCI  23
$$

  *****  SOME NATIONAL WEATHER *****

CITY           SKY/WX    TMP DP  RH WIND       PRES   REMARKS
LA GUARDIA NY  SNOW      26  24  92 NE25G36   29.84F VSB 1/4 WCI  11
RALEIGH NC     CLOUDY    46  39  76 N3        29.62R
ATLANTA GA     PTSUNNY   39  28  64 NW14G24   29.88R
NEW ORLEANS LA MOSUNNY   61  33  35 NW13      30.07R
OKLAHOMA CITY  MOSUNNY   76  30  18 NW16      30.03S
ALBUQUERQUE NM PTSUNNY   56  26  31 VRB3      30.32F
SALT LAKE CITY SUNNY     50  35  56 NW5       30.23F
LOS ANGELES CA CLOUDY    74  34  23 VRB7      29.97S
BOISE ID       SUNNY     43  35  73 N8        30.22F
SEATTLE WA     MOSUNNY   60  46  59 SW8       29.93F
$$

*** WEATHER ACROSS MANITOBA...SASKATCHEWAN AND ONTARIO ***
                ***ONTARIO***

CITY           SKY/WX    TMP DP  RH WIND       PRES   REMARKS
GERALDTON      LGT SNOW  19  18  93 SE5       29.85R WCI  13
THUNDER BAY    LGT SNOW  23  23 100 E8        29.83R WCI  14
SIOUX LOOKOUT  CLOUDY    23  18  80 N6        29.80R WCI  16
TORONTO        MOCLDY    18  -2  41 NE13      29.96S WCI   4
BIG TROUT LK   CLEAR     10   5  79 SE3       29.84R
PICKLE LAKE    FLURRIES  18  12  79 CALM      29.80R
DRYDEN         CLOUDY    23  21  93 N7        29.81R WCI  15
KENORA         FLURRIES  21  19  93 NW10      29.84R WCI  10
$$
                *** MANITOBA***

CITY           SKY/WX    TMP DP  RH WIND       PRES   REMARKS
BRANDON        MOCLDY    34  30  86 W10       29.91R
DAUPHIN        CLEAR     28  25  86 E7        29.87F WCI  21
ISLAND LAKE    CLOUDY    12   9  85 W3        29.85R
PILOT MOUND      N/A     30  28  93 N1          N/A
THE PAS        CLOUDY    23  18  80 S7        29.82S WCI  15
THOMPSON       FLURRIES  10   5  79 SW6       29.79S WCI   1
WINNIPEG       MOCLDY    27  21  80 NW13      29.94R WCI  16
LYNN LAKE      LGT SNOW  18  18 100 SW8       29.68S VSB 1   WCI   7
CHURCHILL      CLOUDY    -8 -13  77 S9        29.79F WCI -25
GILLAM         CLOUDY     5   0  78 SW6       29.82  WCI  -6
$$
                ***SASKATCHEWAN***

CITY           SKY/WX    TMP DP  RH WIND       PRES   REMARKS
ESTEVAN        MOSUNNY   41  32  70 NE2       29.92S
KINDERSLEY     PTSUNNY   39  32  75 VRB2      29.83R
LLOYDMINSTER   MOSUNNY   39  32  75 W10       29.79F
PRINCE ALBERT  MOCLDY    43  32  65 W7        29.79F
REGINA         PTSUNNY   39  32  75 S3        29.88F


USA.gov is the U.S. government's official web portal to all federal, state and local government web resources and services.